Location: Bothwell
(42.3833°S, 147.0000°E)
Time: 19:27:58
(UTC+11:00)

First-Move - Pass Details

Date: 30 September 2022
Orbit: 570 x 653 km, 97.7° (Epoch: 25 November)

Event Time Altitude Azimuth Distance (km) Brightness Sun altitude
Rises 18:06:39 0° 198° (SSW) 2,978 ? 0.9°
Enters shadow 19:02:41 -72° 86° (E) 12,789 ? -9.4°
Exits shadow 19:25:44 -33° 141° (SE) 8,133 ? -13.5°
Maximum altitude 01:53:53 13° 119° (ESE) 1,873 ? -38.4°
